#timestamp,LO_Frequency,Hit,StdDev 
1560841215.8,286046997.3,N
1560841235.7,286046996.8,N
1560841255.5,286046997.0,N
1560841275.3,286046999.1,N
1560841295.2,286046997.8,N
1560841315.0,286046996.5,N
1560841315.9,286046996.5,N
1560841335.8,286046997.1,N
1560841355.6,286046997.3,N
1560841375.4,286046997.1,N
1560841395.3,286046997.1,N
1560841415.1,286046997.8,N
1560841435.4,286046996.7,N
1560841455.2,286046995.0,Y
1560841475.0,286047001.6,P
1560841476.0,286047001.6,N
1560841495.8,286047001.9,N
1560841515.6,286047002.6,N
1560841535.5,286047002.2,N
1560841555.3,286047001.7,N
1560841575.1,286047003.9,N
1560841595.9,286047003.9,N
1560841615.7,286047001.9,N
1560841635.6,286047001.5,N
1560841655.4,286047001.8,N
1560841675.2,286047001.3,N
1560841695.1,286047002.3,N
1560841696.0,286047002.3,N
1560841715.8,286047002.0,N
1560841735.6,286047001.7,N
1560841755.5,286047001.4,N
1560841775.9,286047002.5,N
1560841795.7,286047002.7,N
1560841815.6,286047002.6,N
1560841835.4,286046999.9,N
1560841855.2,286047001.5,N
1560841875.1,286046999.8,N
1560841876.0,286046999.8,N
1560841895.8,286047002.8,N
1560841915.6,286046998.2,N
1560841935.5,286046998.5,N
1560841955.3,286046998.7,N
1560841975.2,286047001.0,N
1560841995.9,286046999.5,N
1560842015.7,286046998.7,N
1560842035.6,286047000.7,N
1560842055.4,286046999.3,N
1560842075.2,286047001.2,N
1560842095.1,286047000.5,N
1560842096.0,286047000.5,N
1560842115.8,286047002.1,N
1560842135.7,286047001.5,N
1560842155.5,286047001.5,N
1560842175.3,286046999.9,N
1560842195.2,286047002.4,N
1560842215.0,286047000.6,N
1560842215.9,286047000.6,N
1560842235.7,286047000.6,N
1560842255.6,286047000.8,N
1560842275.4,286047000.0,N
1560842295.3,286047000.5,N
1560842315.1,286046999.7,N
1560842335.8,286047000.3,N
1560842355.7,286046999.9,N
1560842375.5,286047000.0,N
1560842395.3,286047002.5,N
1560842415.2,286047000.0,N
1560842435.0,286046999.7,N
1560842435.9,286046999.7,N
1560842455.8,286047000.0,N
1560842475.6,286047001.6,N
1560842495.5,286047004.1,Y
1560842515.3,286047003.8,P
1560842535.1,286047005.9,P
1560842555.9,286047003.6,N
1560842575.7,286047001.7,N
1560842595.5,286047002.8,N
1560842615.4,286047001.5,N
1560842635.2,286047001.0,N
1560842655.1,286047000.8,N
1560842656.0,286047000.8,N
1560842675.8,286047000.0,N
1560842695.7,286046999.9,N
1560842715.5,286047000.5,N
1560842735.3,286047002.3,N
1560842755.2,286047001.4,N
1560842775.0,286047003.4,N
1560842775.9,286047003.4,N
1560842795.7,286047003.8,N
1560842815.6,286047001.9,N
1560842835.4,286046999.7,N
1560842855.3,286046999.8,N
1560842875.1,286046999.7,N
1560842876.0,286046999.7,N
1560842895.8,286047002.5,N
1560842915.7,286047000.1,N
1560842935.5,286046999.7,N
1560842955.3,286047002.3,N
1560842975.2,286047002.5,N
1560842995.0,286047001.7,N
1560842995.9,286047001.7,N
1560843015.8,286047004.3,N
1560843035.6,286047002.6,N
1560843055.4,286047002.7,N
1560843075.3,286047002.7,N
1560843095.1,286047002.4,N
1560843115.8,286047004.0,N
1560843135.7,286047001.8,N
1560843155.5,286047003.4,N
1560843175.4,286047004.4,Y
1560843195.2,286047001.1,P
1560843215.0,286047000.9,N
1560843215.9,286047000.9,N
1560843235.8,286047000.6,N
1560843255.6,286047002.2,Y
1560843275.4,286047000.8,P
1560843295.3,286046998.1,P
1560843315.1,286047001.0,N
1560843335.9,286047000.9,N
1560843355.7,286047001.1,N
1560843375.5,286047002.4,N
1560843395.4,286046999.9,N
1560843415.2,286047000.5,N
1560843435.0,286047002.3,N
1560843435.9,286047002.3,N
1560843455.8,286047002.0,N
1560843475.6,286047002.1,N
1560843495.5,286047002.1,N
1560843515.3,286047002.0,N
1560843535.1,286047004.3,Y
1560843555.9,286047000.3,P
1560843575.7,286047002.8,P
1560843595.6,286047002.3,N
1560843615.4,286047000.2,N
1560843635.2,286047001.0,N
1560843655.1,286047000.3,N
1560843656.0,286047000.3,N
1560843675.8,286047000.0,N
1560843695.7,286047000.9,N
1560843715.5,286047000.5,N
1560843735.3,286047000.3,N
1560843755.2,286047001.2,N
1560843775.0,286047001.2,N
1560843775.9,286047001.2,N
1560843795.8,286046998.6,N
1560843815.6,286046998.9,N
1560843835.4,286046998.5,N
1560843855.3,286046999.4,N
1560843875.1,286046996.5,Y
1560843895.8,286046997.9,P
1560843915.7,286046995.5,P
1560843935.5,286046995.5,N
1560843955.3,286046995.5,N
1560843975.2,286046996.4,N
1560844025.1,286046996.2,E
1560844035.9,286046997.1,N
1560844055.7,286047000.8,P
1560844075.6,286047001.1,N
1560844095.4,286046998.7,N
1560844115.2,286046999.5,N
1560844135.1,286046996.6,N
1560844136.0,286046996.6,N
1560844155.8,286046996.8,N
1560844175.6,286046998.0,N
1560844195.5,286046997.3,N
1560844215.3,286046997.5,N
1560844235.2,286046997.3,N
1560844255.9,286046997.5,N
1560844275.7,286046997.8,N
1560844295.6,286046997.8,N
1560844315.4,286046996.7,N
1560844335.2,286046999.2,N
1560844355.1,286046996.9,N
1560844356.0,286046996.9,N
1560844375.8,286046997.3,N
1560844395.7,286046998.8,N
1560844415.5,286047001.0,N
1560844435.3,286047000.2,N
1560844455.2,286047001.2,N
1560844475.9,286047000.0,N
1560844495.7,286047000.6,N
1560844515.6,286046999.9,N
1560844535.4,286046999.8,N
1560844555.3,286047000.9,N
1560844575.1,286047000.5,N
1560844576.0,286047000.5,N
1560844595.8,286047000.6,N
1560844615.7,286047000.7,N
1560844635.5,286047001.2,N
1560844655.3,286047002.8,N
1560844675.2,286047001.1,N
1560844695.0,286046998.3,N
1560844695.9,286046998.3,N
1560844715.8,286046998.5,N
1560844735.6,286046999.5,N
1560844755.4,286046998.7,N
1560844775.3,286047001.1,N
1560844795.1,286046998.3,N
